Location: Unspecified
(0.0000°N, 0.0000°E)
Time: 01:08:08
(UTC+01:00)

ASC 2 Rocket - Visible Passes

Search period start: 23 November 2017 00:00
Search period end: 03 December 2017 00:00
Orbit: 556 x 2345 km, 24.0° (Epoch: 22 November)

Date Brightness Start Highest point End Pass type
(mag) Time Alt. Az. Time Alt. Az. Time Alt. Az.
23 Nov 6.8 03:17:05 27° NNE 03:17:05 27° NNE 03:22:27 10° NE visible
23 Nov 6.6 05:11:55 23° NW 05:16:15 26° NNW 05:26:09 10° NE visible
23 Nov 6.0 21:44:00 10° SSW 21:49:03 28° S 21:49:03 28° S visible
24 Nov 6.5 04:09:47 31° N 04:09:47 31° N 04:19:03 10° NE visible
24 Nov 6.8 06:05:19 10° NW 06:14:59 22° N 06:23:15 10° NE visible
24 Nov 6.2 20:39:18 10° SSW 20:43:58 18° SSE 20:46:33 16° SE visible
24 Nov 6.5 22:39:15 10° SW 22:41:21 21° SW 22:41:21 21° SW visible
25 Nov 7.1 03:07:35 21° NE 03:07:35 21° NE 03:11:30 10° NE visible
25 Nov 6.7 05:02:25 22° NNW 05:06:06 25° N 05:16:02 10° NE visible
25 Nov 5.7 21:33:58 10° SW 21:38:53 33° S 21:38:53 33° S visible
26 Nov 6.7 04:00:11 27° N 04:00:11 27° N 04:08:27 10° NE visible
26 Nov 6.8 05:55:00 10° NW 06:05:04 23° N 06:13:50 10° NE visible
26 Nov 5.8 20:29:15 10° SSW 20:33:57 21° SSE 20:36:27 18° SE visible
26 Nov 6.4 22:29:18 10° SW 22:31:15 21° SW 22:31:15 21° SW visible
27 Nov 7.3 02:57:54 16° NE 02:57:54 16° NE 03:00:31 10° NE visible
27 Nov 6.7 04:52:44 22° NNW 04:56:03 24° N 05:06:03 10° NE visible
27 Nov 6.1 19:26:05 10° SSE 19:27:29 11° SSE 19:28:58 10° SE visible
27 Nov 5.3 21:24:00 10° SW 21:28:52 39° S 21:28:52 39° S visible
28 Nov 6.9 03:50:26 24° NNE 03:50:26 24° NNE 03:57:56 10° NE visible
28 Nov 6.8 05:45:15 12° NW 05:55:06 24° N 06:04:32 10° NE visible
28 Nov 5.4 20:19:13 10° SSW 20:23:54 25° SSE 20:26:30 21° ESE visible
28 Nov 6.3 22:19:30 10° WSW 22:21:19 21° WSW 22:21:19 21° WSW visible
29 Nov 7.4 02:48:07 13° NE 02:48:07 13° NE 02:49:32 10° NE visible
29 Nov 6.8 04:42:56 23° NNW 04:46:00 24° N 04:56:14 10° NE visible
29 Nov 5.8 19:15:21 10° S 19:17:39 13° SSE 19:20:16 10° SE visible
29 Nov 4.7 21:14:09 10° SW 21:19:00 50° S 21:19:00 50° S visible
30 Nov 7.0 03:40:37 22° NNE 03:40:37 22° NNE 03:47:32 10° NE visible
30 Nov 6.8 05:35:25 14° NW 05:45:03 27° N 05:55:14 10° ENE visible
30 Nov 5.0 20:09:13 10° SSW 20:13:51 31° SSE 20:16:43 23° ESE visible
30 Nov 6.2 22:09:52 10° WSW 22:11:32 21° WSW 22:11:32 21° WSW visible
01 Dec 7.5 02:38:17 11° NE 02:38:17 11° NE 02:38:37 10° NE visible
01 Dec 6.7 04:33:06 24° N 04:35:57 25° N 04:46:33 10° NE visible
01 Dec 4.2 21:04:24 10° WSW 21:09:17 66° SSW 21:09:17 66° SSW visible
02 Dec 7.0 03:30:46 21° NNE 03:30:46 21° NNE 03:37:19 10° NE visible
02 Dec 6.7 05:25:35 16° NW 05:34:51 31° NNE 05:45:52 10° ENE visible
02 Dec 4.4 19:59:19 10° SW 20:03:50 41° SSE 20:07:04 24° E visible
02 Dec 6.1 22:00:26 10° W 22:01:53 19° W 22:01:53 19° W visible
